Skip Page Navigation
NASA JPL Caltech
NASA Logo - Jet Propulsion Laboratory + View the NASA Portal
+ Center for Near-Earth Object Studies
JPL Home Earth Solar System Stars & Galaxies Technology
JPL Solar System Dynamics
BODIES ORBITS EPHEMERIDES TOOLS PHYSICAL DATA DISCOVERY FAQ SITE MAP
JPL Small-Body Database Browser
Search: [ help ]  
324372 (2006 RW2)
Classification: Main-belt Asteroid          SPK-ID: 2324372
Ephemeris | Orbit Diagram | Orbital Elements | Mission Design | Physical Parameters | Discovery Circumstances | Close-Approach Data ]

[ show orbit diagram ]
Orbital Elements at Epoch 2459000.5 (2020-May-31.0) TDB
Reference: JPL 12 (heliocentric ecliptic J2000)
 Element Value Uncertainty (1-sigma)   Units 
e .1951111838986007 6.857e-08  
a 2.196180750008272 1.0236e-08 au
q 1.767681323818841 1.5124e-07 au
i 3.334634871751567 6.5114e-06 deg
node 36.83419770169294 0.00012722 deg
peri 268.8985018716366 0.00012931 deg
M 105.6741436024862 1.9764e-05 deg
tp 2458651.547122550387
(2019-Jun-17.04712255)
6.5842e-05 TDB
period 1188.777420845879
3.25
8.3111e-06
2.275e-08
d
yr
n .3028321313033021 2.1172e-09 deg/d
Q 2.624680176197702 1.2233e-08 au
  Orbit Determination Parameters
   # obs. used (total)      176  
   data-arc span      5847 days (16.01 yr)  
   first obs. used      2003-10-21  
   last obs. used      2019-10-24  
   planetary ephem.      DE431  
   SB-pert. ephem.      SB431-N16  
   condition code      0  
   norm. resid. RMS      .65661  
   source      ORB  
   producer      Otto Matic  
   solution date      2019-Nov-08 09:10:40  

Additional Information
 Earth MOID = .756665 au 
 Jupiter MOID = 2.62174 au 
 T_jup = 3.641 
[ show covariance matrix ]

Ephemeris | Orbit Diagram | Orbital Elements | Mission Design | Physical Parameters | Discovery Circumstances | Close-Approach Data ]

Physical Parameter Table
Parameter Symbol Value Units Sigma Reference Notes
absolute magnitude H 17.7   n/a MPO338994  

324372 (2006 RW2)          Discovered 2006-Sep-12 by LINEAR at Socorro
Reference: 20120406/Numbers.arcLast Updated: 2012-04-09

[ show close-approach data ]
Ephemeris | Orbit Diagram | Orbital Elements | Mission Design | Physical Parameters | Discovery Circumstances | Close-Approach Data ]
ABOUT SSD CREDITS/AWARDS PRIVACY/COPYRIGHT GLOSSARY LINKS
FirstGov 2020-Jul-06 18:38 UT
(server date/time)  
NASA Home Page
Site Manager:   Ryan S. Park
Webmaster  Alan B. Chamberlin